Portada
METAR-TAF:

METAR-TAF

Aeroports :

Vientiane, Laos

latitud: 17-57N, longitud: 102-34E, altitud: 171 m

Observació

L'informe es va fer fa 1 hora i 2 minuts, a les 13:30 UTC
Vent 2 kt del Nord-Oest
Temperatura 24°C
Humitat 74%
Pressió 1012 hPa
Visibilitat: 4000 m
boirina

METAR: VLVT 261330Z 32002KT 4000 BR NSC 24/19 Q1012 NOSIG

Hora: 21:32 (14:32 UTC)

Pronòstic

L'informe es va fer fa 3 hores i 32 minuts, a les 11:00 UTC
Pronòstic vàlid del 26 a les 12 UTC al 27 a les 12 UTC
Vent 4 kt del Est/Sud-Est
Visibilitat: 5000 m
Escasses núvols a una alçada de 2000 ft
Escasses núvols a una alçada de 5000 ft
boirina

TAF: VLVT 261100Z 2612/2712 12004KT 5000 BR FEW020 FEW050

Observacions i pronòstics meteorològics de més de 4000 aeroports (METAR i TAF).

Les estacions disponibles són els punts grocs i vermells al mapa.

Posi el ratolí al punt desitjat per veure el nom de l'estació.

Feu clic per veure les observacions i els pronòstics meteorològics.

Per canviar el mapa: feu clic els botons verds amb una creu de color negre per apropar; al botó verd amb un guió per allunyar la imatge; o en les fletxes verdes per a mapes adjacents.


METAR-TAF: